Location: ???????
(55.9142°N, 37.8256°E)
Time: 14:21:33
(UTC+00:00)

USA 215 - Visible Passes

Search period start: 12 July 2024 00:00
Search period end: 22 July 2024 00:00
Orbit: 1100 x 1107 km, 123.0° (Epoch: 22 April)

Date Brightness Start Highest point End Pass type
(mag) Time Alt. Az. Time Alt. Az. Time Alt. Az.
12 Jul 5.2 18:58:40 10° SSW 19:02:35 16° WSW 19:06:31 10° W visible
14 Jul 5.2 19:16:12 10° SSW 19:20:06 16° WSW 19:24:00 10° W visible
16 Jul 5.1 19:33:44 10° SSW 19:37:36 16° WSW 19:41:30 10° W visible
17 Jul 4.5 18:48:35 10° S 18:54:07 28° SW 18:59:40 10° WNW visible
18 Jul 5.1 19:51:17 10° SSW 19:55:07 16° WSW 19:58:59 10° W visible
19 Jul 4.5 19:06:06 10° S 19:11:37 28° SW 19:17:10 10° WNW visible
20 Jul 5.1 20:08:49 10° SSW 20:12:38 16° WSW 20:16:28 10° W visible
21 Jul 4.5 19:23:37 10° S 19:29:08 28° SW 19:34:40 10° WNW visible
